Location: Colebrook
(42.0017°N, 73.0973°W)
Time: 14:53:24
(UTC-05:00)

CAS-4B - Pass Details

Date: 27 November 2021
Orbit: 529 x 539 km, 43.0° (Epoch: 16 January)

Event Time Altitude Azimuth Distance (km) Brightness Sun altitude
Exits shadow 05:48:27 - 241° (WSW) 1,810 ? -12.5°
Reaches altitude 10° 05:48:48 10° 236° (WSW) 1,766 ? -12.5°
Maximum altitude 05:49:55 11° 220° (SW) 1,703 ? -12.3°
Drops below altitude 10° 05:51:03 10° 204° (SSW) 1,765 ? -12.1°
Sets 05:54:51 0° 167° (SSE) 2,651 ? -11.4°
